Погода в Кокоре

Россия / Республика Алтай     49°54′55″N   88°59′54″E
темп.,
°C
ветер,
м/с
пор.,
м/с
влажн.,
%
обл.,
%
осадки,
мм/ч
давл.,
гПа
погр.,
м
21 января, пт
пт2101:00−23св329569 0.1 103813
04:00−24св329785 0.0 103912
07:00−25св229790 0.1 104011
10:00−25св229793 0.0 104016
13:00−19ююз109330 0.1 1033116
16:00−20з01976 0.0 10329
19:00−26св229555 0.0 10389
22:00−27св229452 0.0 10409
22 января, сб
сб2201:00−28св229668 0.0 10419
04:00−28св219875 0.0 10429
07:00−29ссв219867 0.0 10439
10:00−28ссв119775 0.0 10459
13:00−23юз109535 0.0 103989
16:00−22з00965 0.0 103813
19:00−28св22935 0.0 10459
22:00−29св229130 0.0 10489
23 января, вс
вс2301:00−29св229338 0.0 10499
04:00−30ссв229477 0.0 10509
07:00−30ссв219554 0.0 10509
10:00−29ссв119245 0.0 10519
13:00−23юз119021 0.0 104479
16:00−23зсз01915 0.0 104225
19:00−28св22802 0.0 10489
22:00−29св227614 0.0 10509
24 января, пн
пн2401:00−30св227518 0.0 10509
04:00−30ссв227427 0.0 10509
07:00−30ссв227240 0.0 10509
10:00−27с1175100 0.0 104721
13:00−22зюз1172100 0.0 104068
16:00−20зюз1178100 0.0 103630
19:00−21с1175100 0.0 10369
22:00−20ссз0175100 0.0 103517
25 января, вт
вт2501:00−21с0079100 0.0 10349
04:00−22с1177100 0.0 10349
07:00−23св1178100 0.0 10359
10:00−21ссв0082100 0.0 103518
13:00−18ююз1072100 0.0 1031105
16:00−18юз1184100 0.0 103012
19:00−21всв1188100 0.0 10349
22:00−22св118896 0.0 10359